NAO YBNA-YNRM

Flight info

Callsign NAO
Flight time 1h 21m
Altitude 18000
Route BNA W494 IDNER W760 DU
Aircraft B350/L-SDFGRW/S

Departure

Time 2026-05-09 09:30
Airport Ballina Byron Gateway Airport (YBNA)

Arrival

Time 2026-05-09 10:51
Airport Narromine Airport (YNRM)
Time Latitude Longitude Altitude Speed Heading
2026-05-09 09:07 -28.83734 153.55494 11 ft 0 kts 347°
2026-05-09 09:22 -28.83712 153.55507 11 ft 7 kts 34°
2026-05-09 09:23 -28.83669 153.55548 11 ft 9 kts 61°
2026-05-09 09:23 -28.83652 153.55612 11 ft 9 kts 73°
2026-05-09 09:23 -28.83621 153.55687 11 ft 11 kts 31°
2026-05-09 09:23 -28.83551 153.55677 11 ft 11 kts 343°
2026-05-09 09:24 -28.83530 153.55669 11 ft 0 kts 343°
2026-05-09 09:25 -28.83501 153.55660 11 ft 15 kts 344°
2026-05-09 09:26 -28.83428 153.55733 11 ft 18 kts 74°
2026-05-09 09:26 -28.83405 153.55824 12 ft 18 kts 73°
2026-05-09 09:26 -28.83357 153.56002 12 ft 17 kts 73°
2026-05-09 09:26 -28.83334 153.56090 12 ft 17 kts 73°
2026-05-09 09:27 -28.83301 153.56221 13 ft 17 kts 74°
2026-05-09 09:27 -28.83267 153.56347 13 ft 17 kts 73°
2026-05-09 09:27 -28.83233 153.56476 11 ft 17 kts 74°
2026-05-09 09:27 -28.83198 153.56608 11 ft 17 kts 73°
2026-05-09 09:28 -28.83166 153.56737 11 ft 17 kts 73°
2026-05-09 09:28 -28.83130 153.56863 12 ft 17 kts 71°
2026-05-09 09:28 -28.83109 153.56987 12 ft 15 kts 79°
2026-05-09 09:28 -28.83094 153.57003 13 ft 0 kts 252°
2026-05-09 09:29 -28.83146 153.56807 11 ft 71 kts 253°
2026-05-09 09:29 -28.83348 153.56035 67 ft 125 kts 252°
2026-05-09 09:29 -28.83668 153.55025 465 ft 146 kts 249°
2026-05-09 09:30 -28.83964 153.53847 900 ft 161 kts 252°
2026-05-09 09:30 -28.84057 153.52536 1349 ft 175 kts 277°
2026-05-09 09:30 -28.83869 153.51131 1793 ft 182 kts 266°
2026-05-09 09:30 -28.83955 153.49669 2242 ft 188 kts 261°
2026-05-09 09:31 -28.84089 153.48167 2690 ft 193 kts 261°
2026-05-09 09:31 -28.84214 153.46635 3145 ft 197 kts 262°
2026-05-09 09:31 -28.84338 153.45063 3598 ft 200 kts 262°
2026-05-09 09:32 -28.84589 153.41868 4495 ft 204 kts 262°
2026-05-09 09:32 -28.84717 153.40245 4955 ft 206 kts 262°
2026-05-09 09:32 -28.84845 153.38610 5402 ft 208 kts 262°
2026-05-09 09:32 -28.84975 153.36958 5848 ft 210 kts 262°
2026-05-09 09:33 -28.85106 153.35294 6296 ft 211 kts 263°
2026-05-09 09:33 -28.85236 153.33642 6747 ft 212 kts 263°
2026-05-09 09:33 -28.85365 153.31961 7171 ft 213 kts 263°
2026-05-09 09:33 -28.85496 153.30275 7605 ft 213 kts 263°
2026-05-09 09:34 -28.85628 153.28589 8050 ft 213 kts 263°
2026-05-09 09:34 -28.85760 153.26903 8497 ft 213 kts 263°
2026-05-09 09:34 -28.85891 153.25215 8950 ft 214 kts 263°
2026-05-09 09:36 -28.86802 153.13391 12042 ft 213 kts 264°
2026-05-09 09:36 -28.86930 153.11730 12483 ft 213 kts 264°
2026-05-09 09:36 -28.87058 153.10044 12930 ft 213 kts 264°
2026-05-09 09:37 -28.87188 153.08360 13381 ft 213 kts 264°
2026-05-09 09:37 -28.87315 153.06673 13843 ft 213 kts 265°
2026-05-09 09:37 -28.87444 153.04987 14286 ft 213 kts 265°
2026-05-09 09:37 -28.87574 153.03303 14702 ft 213 kts 264°
2026-05-09 09:38 -28.87921 153.01671 15125 ft 212 kts 246°
2026-05-09 09:38 -28.88755 153.00286 15565 ft 213 kts 225°
2026-05-09 09:38 -28.89941 152.99281 16007 ft 213 kts 213°
2026-05-09 09:38 -28.91216 152.98418 16449 ft 212 kts 212°
2026-05-09 09:39 -28.92506 152.97607 16899 ft 212 kts 207°
2026-05-09 09:39 -28.93824 152.96863 17353 ft 211 kts 211°
2026-05-09 09:39 -28.94975 152.95891 17812 ft 208 kts 225°
2026-05-09 09:39 -28.95969 152.94696 18260 ft 209 kts 229°
2026-05-09 09:40 -28.96993 152.93418 18293 ft 227 kts 228°
2026-05-09 09:40 -28.98118 152.92065 18305 ft 241 kts 227°
2026-05-09 09:40 -28.99308 152.90649 18302 ft 252 kts 227°
2026-05-09 09:40 -29.00546 152.89173 18300 ft 260 kts 227°
2026-05-09 09:41 -29.01814 152.87656 18300 ft 267 kts 227°
2026-05-09 09:41 -29.03108 152.86105 18300 ft 271 kts 227°
2026-05-09 09:41 -29.04419 152.84535 18300 ft 274 kts 227°
2026-05-09 09:41 -29.05744 152.82950 18299 ft 277 kts 227°
2026-05-09 09:42 -29.07074 152.81356 18293 ft 278 kts 227°
2026-05-09 09:42 -29.08413 152.79749 18300 ft 280 kts 227°
2026-05-09 09:42 -29.09757 152.78138 18299 ft 281 kts 227°
2026-05-09 09:42 -29.11089 152.76540 18302 ft 281 kts 227°
2026-05-09 09:43 -29.12439 152.74919 18302 ft 282 kts 227°
2026-05-09 09:43 -29.13791 152.73295 18303 ft 282 kts 227°
2026-05-09 09:43 -29.15145 152.71669 18304 ft 283 kts 227°
2026-05-09 09:43 -29.16501 152.70037 18304 ft 283 kts 227°
2026-05-09 09:44 -29.17861 152.68404 18304 ft 283 kts 227°
2026-05-09 09:44 -29.19220 152.66768 18307 ft 283 kts 227°
2026-05-09 09:44 -29.20579 152.65133 18306 ft 284 kts 227°
2026-05-09 09:44 -29.21937 152.63498 18306 ft 284 kts 227°
2026-05-09 09:45 -29.23297 152.61859 18310 ft 284 kts 227°
2026-05-09 09:45 -29.24655 152.60224 18310 ft 284 kts 227°
2026-05-09 09:45 -29.26022 152.58576 18309 ft 284 kts 227°
2026-05-09 09:45 -29.27382 152.56938 18310 ft 284 kts 227°
2026-05-09 09:46 -29.28741 152.55296 18312 ft 284 kts 227°
2026-05-09 09:46 -29.30099 152.53658 18315 ft 284 kts 227°
2026-05-09 09:46 -29.31460 152.52015 18315 ft 284 kts 227°
2026-05-09 09:46 -29.32821 152.50372 18314 ft 284 kts 227°
2026-05-09 09:47 -29.34164 152.48747 18318 ft 284 kts 227°
2026-05-09 09:47 -29.35525 152.47104 18317 ft 284 kts 227°
2026-05-09 09:47 -29.36883 152.45460 18322 ft 284 kts 227°
2026-05-09 09:47 -29.38244 152.43815 18320 ft 284 kts 227°
2026-05-09 09:48 -29.39604 152.42168 18318 ft 284 kts 227°
2026-05-09 09:48 -29.40968 152.40516 18323 ft 284 kts 227°
2026-05-09 09:48 -29.42327 152.38870 18321 ft 285 kts 227°
2026-05-09 09:48 -29.43692 152.37217 18324 ft 285 kts 227°
2026-05-09 09:49 -29.45052 152.35567 18323 ft 285 kts 227°
2026-05-09 09:49 -29.46414 152.33915 18328 ft 285 kts 227°
2026-05-09 09:49 -29.47779 152.32260 18332 ft 285 kts 227°
2026-05-09 09:49 -29.49141 152.30606 18332 ft 285 kts 227°
2026-05-09 09:50 -29.50501 152.28953 18331 ft 285 kts 227°
2026-05-09 09:50 -29.51846 152.27320 18330 ft 285 kts 227°
2026-05-09 09:50 -29.53224 152.25645 18332 ft 285 kts 227°
2026-05-09 09:50 -29.54566 152.24011 18333 ft 285 kts 227°
2026-05-09 09:51 -29.55929 152.22356 18334 ft 285 kts 227°
2026-05-09 09:51 -29.57287 152.20703 18336 ft 285 kts 227°
2026-05-09 09:51 -29.58649 152.19044 18335 ft 285 kts 227°
2026-05-09 09:51 -29.59993 152.17368 18341 ft 284 kts 231°
2026-05-09 09:52 -29.61248 152.15606 18337 ft 284 kts 231°
2026-05-09 09:52 -29.62508 152.13850 18337 ft 284 kts 231°
2026-05-09 09:52 -29.63774 152.12098 18336 ft 285 kts 231°
2026-05-09 09:52 -29.65037 152.10346 18342 ft 285 kts 231°
2026-05-09 09:53 -29.66299 152.08590 18340 ft 285 kts 231°
2026-05-09 09:53 -29.67559 152.06836 18338 ft 285 kts 231°
2026-05-09 09:53 -29.68821 152.05081 18340 ft 285 kts 231°
2026-05-09 09:53 -29.70066 152.03346 18343 ft 285 kts 231°
2026-05-09 09:54 -29.71329 152.01587 18343 ft 285 kts 231°
2026-05-09 09:54 -29.72589 151.99831 18341 ft 285 kts 231°
2026-05-09 09:54 -29.73853 151.98069 18341 ft 285 kts 231°
2026-05-09 09:54 -29.75116 151.96305 18342 ft 285 kts 231°
2026-05-09 09:55 -29.76378 151.94545 18341 ft 285 kts 231°
2026-05-09 09:55 -29.77640 151.92784 18340 ft 285 kts 231°
2026-05-09 09:55 -29.78901 151.91023 18346 ft 285 kts 231°
2026-05-09 09:55 -29.80162 151.89260 18346 ft 285 kts 231°
2026-05-09 09:56 -29.81423 151.87496 18346 ft 285 kts 231°
2026-05-09 09:56 -29.82669 151.85755 18345 ft 285 kts 231°
2026-05-09 09:56 -29.83930 151.83989 18351 ft 285 kts 231°
2026-05-09 09:56 -29.85193 151.82222 18347 ft 286 kts 231°
2026-05-09 09:57 -29.86454 151.80455 18345 ft 286 kts 231°
2026-05-09 09:57 -29.87717 151.78687 18347 ft 286 kts 231°
2026-05-09 09:57 -29.88978 151.76918 18346 ft 286 kts 231°
2026-05-09 09:57 -29.90244 151.75144 18348 ft 286 kts 231°
2026-05-09 09:58 -29.91505 151.73374 18347 ft 286 kts 231°
2026-05-09 09:58 -29.92767 151.71603 18346 ft 286 kts 231°
2026-05-09 09:58 -29.94029 151.69831 18347 ft 286 kts 231°
2026-05-09 09:58 -29.95292 151.68056 18342 ft 286 kts 231°
2026-05-09 09:59 -29.96554 151.66284 18345 ft 286 kts 231°
2026-05-09 09:59 -29.97816 151.64508 18344 ft 286 kts 231°
2026-05-09 09:59 -29.99061 151.62757 18345 ft 286 kts 231°
2026-05-09 09:59 -30.00324 151.60980 18340 ft 286 kts 231°
2026-05-09 10:00 -30.01587 151.59202 18336 ft 286 kts 231°
2026-05-09 10:00 -30.02849 151.57426 18337 ft 286 kts 231°
2026-05-09 10:00 -30.04111 151.55646 18333 ft 286 kts 231°
2026-05-09 10:00 -30.05375 151.53864 18334 ft 286 kts 231°
2026-05-09 10:01 -30.06638 151.52083 18331 ft 286 kts 231°
2026-05-09 10:01 -30.07900 151.50302 18330 ft 287 kts 231°
2026-05-09 10:01 -30.09161 151.48522 18325 ft 287 kts 231°
2026-05-09 10:01 -30.10425 151.46737 18324 ft 287 kts 231°
2026-05-09 10:02 -30.11689 151.44951 18321 ft 287 kts 231°
2026-05-09 10:02 -30.12952 151.43166 18320 ft 287 kts 231°
2026-05-09 10:02 -30.14214 151.41381 18327 ft 287 kts 231°
2026-05-09 10:02 -30.15459 151.39619 18325 ft 287 kts 231°
2026-05-09 10:03 -30.16723 151.37830 18328 ft 287 kts 231°
2026-05-09 10:03 -30.17986 151.36042 18325 ft 287 kts 231°
2026-05-09 10:03 -30.19250 151.34251 18324 ft 287 kts 231°
2026-05-09 10:03 -30.20514 151.32459 18324 ft 287 kts 231°
2026-05-09 10:04 -30.21776 151.30669 18323 ft 287 kts 231°
2026-05-09 10:04 -30.23039 151.28880 18322 ft 287 kts 231°
2026-05-09 10:04 -30.24302 151.27086 18326 ft 287 kts 231°
2026-05-09 10:04 -30.25567 151.25291 18328 ft 287 kts 231°
2026-05-09 10:05 -30.26828 151.23498 18326 ft 287 kts 231°
2026-05-09 10:05 -30.28089 151.21707 18322 ft 287 kts 231°
2026-05-09 10:05 -30.29350 151.19914 18317 ft 287 kts 231°
2026-05-09 10:05 -30.30612 151.18119 18323 ft 287 kts 231°
2026-05-09 10:06 -30.31871 151.16326 18323 ft 287 kts 231°
2026-05-09 10:06 -30.33131 151.14533 18323 ft 287 kts 231°
2026-05-09 10:06 -30.34389 151.12741 18321 ft 287 kts 231°
2026-05-09 10:06 -30.35648 151.10947 18322 ft 287 kts 231°
2026-05-09 10:07 -30.36905 151.09154 18321 ft 287 kts 231°
2026-05-09 10:07 -30.38162 151.07361 18323 ft 287 kts 231°
2026-05-09 10:07 -30.39404 151.05590 18321 ft 287 kts 231°
2026-05-09 10:07 -30.40660 151.03795 18324 ft 287 kts 231°
2026-05-09 10:08 -30.41916 151.02004 18324 ft 287 kts 231°
2026-05-09 10:08 -30.43171 151.00208 18323 ft 287 kts 231°
2026-05-09 10:08 -30.44425 150.98417 18318 ft 287 kts 231°
2026-05-09 10:08 -30.45680 150.96621 18324 ft 287 kts 231°
2026-05-09 10:09 -30.46939 150.94822 18321 ft 286 kts 231°
2026-05-09 10:09 -30.48192 150.93026 18319 ft 286 kts 231°
2026-05-09 10:09 -30.49447 150.91230 18321 ft 286 kts 231°
2026-05-09 10:09 -30.50697 150.89439 18318 ft 286 kts 231°
2026-05-09 10:10 -30.51952 150.87639 18319 ft 286 kts 231°
2026-05-09 10:10 -30.53203 150.85845 18318 ft 286 kts 231°
2026-05-09 10:10 -30.54454 150.84050 18315 ft 286 kts 231°
2026-05-09 10:10 -30.55707 150.82252 18316 ft 286 kts 231°
2026-05-09 10:11 -30.56956 150.80456 18312 ft 286 kts 231°
2026-05-09 10:11 -30.58207 150.78662 18312 ft 286 kts 231°
2026-05-09 10:11 -30.59439 150.76890 18309 ft 286 kts 231°
2026-05-09 10:11 -30.60687 150.75096 18310 ft 285 kts 231°
2026-05-09 10:12 -30.61934 150.73300 18309 ft 285 kts 232°
2026-05-09 10:12 -30.63180 150.71509 18307 ft 285 kts 231°
2026-05-09 10:12 -30.64426 150.69713 18304 ft 285 kts 231°
2026-05-09 10:12 -30.65669 150.67923 18301 ft 285 kts 231°
2026-05-09 10:13 -30.66915 150.66128 18300 ft 285 kts 232°
2026-05-09 10:13 -30.67737 150.64941 18299 ft 285 kts 231°
2026-05-09 10:13 -30.68980 150.63151 18305 ft 285 kts 232°
2026-05-09 10:13 -30.70221 150.61358 18303 ft 284 kts 231°
2026-05-09 10:14 -30.71463 150.59565 18304 ft 284 kts 232°
2026-05-09 10:14 -30.72701 150.57777 18301 ft 284 kts 231°
2026-05-09 10:14 -30.73942 150.55984 18301 ft 284 kts 232°
2026-05-09 10:14 -30.75181 150.54193 18298 ft 284 kts 232°
2026-05-09 10:15 -30.76420 150.52401 18302 ft 284 kts 232°
2026-05-09 10:15 -30.77661 150.50606 18297 ft 284 kts 232°
2026-05-09 10:15 -30.78896 150.48818 18303 ft 284 kts 232°
2026-05-09 10:15 -30.80131 150.47029 18300 ft 284 kts 232°
2026-05-09 10:16 -30.81364 150.45242 18300 ft 283 kts 232°
2026-05-09 10:16 -30.82584 150.43474 18302 ft 283 kts 232°
2026-05-09 10:16 -30.83817 150.41685 18303 ft 283 kts 232°
2026-05-09 10:16 -30.85055 150.39890 18299 ft 283 kts 232°
2026-05-09 10:17 -30.86287 150.38101 18302 ft 283 kts 232°
2026-05-09 10:17 -30.87518 150.36314 18298 ft 283 kts 232°
2026-05-09 10:17 -30.88747 150.34527 18301 ft 283 kts 232°
2026-05-09 10:17 -30.89974 150.32746 18302 ft 282 kts 232°
2026-05-09 10:18 -30.91203 150.30957 18303 ft 282 kts 232°
2026-05-09 10:18 -30.92430 150.29173 18302 ft 282 kts 232°
2026-05-09 10:18 -30.93654 150.27390 18302 ft 282 kts 232°
2026-05-09 10:18 -30.94878 150.25608 18294 ft 282 kts 232°
2026-05-09 10:19 -30.96145 150.23869 18298 ft 281 kts 228°
2026-05-09 10:19 -30.97455 150.22172 18300 ft 281 kts 229°
2026-05-09 10:19 -30.98749 150.20466 18300 ft 281 kts 229°
2026-05-09 10:19 -31.00035 150.18778 18294 ft 281 kts 229°
2026-05-09 10:20 -31.01333 150.17078 18293 ft 281 kts 229°
2026-05-09 10:20 -31.02633 150.15375 18299 ft 281 kts 229°
2026-05-09 10:20 -31.03932 150.13673 18301 ft 281 kts 229°
2026-05-09 10:20 -31.05230 150.11968 18299 ft 281 kts 229°
2026-05-09 10:21 -31.06527 150.10268 18305 ft 280 kts 229°
2026-05-09 10:21 -31.07823 150.08564 18304 ft 280 kts 229°
2026-05-09 10:21 -31.09119 150.06864 18305 ft 280 kts 229°
2026-05-09 10:21 -31.10414 150.05160 18303 ft 280 kts 229°
2026-05-09 10:22 -31.11711 150.03456 18303 ft 280 kts 229°
2026-05-09 10:22 -31.12987 150.01777 18310 ft 280 kts 229°
2026-05-09 10:22 -31.14278 150.00079 18307 ft 280 kts 229°
2026-05-09 10:22 -31.15569 149.98379 18301 ft 279 kts 229°
2026-05-09 10:23 -31.16858 149.96683 18299 ft 279 kts 229°
2026-05-09 10:23 -31.18145 149.94985 18303 ft 279 kts 229°
2026-05-09 10:23 -31.19435 149.93286 18307 ft 279 kts 229°
2026-05-09 10:23 -31.20721 149.91589 18303 ft 279 kts 229°
2026-05-09 10:24 -31.22007 149.89893 18305 ft 279 kts 229°
2026-05-09 10:24 -31.23292 149.88196 18311 ft 279 kts 229°
2026-05-09 10:24 -31.24577 149.86499 18311 ft 278 kts 229°
2026-05-09 10:24 -31.25861 149.84802 18307 ft 278 kts 229°
2026-05-09 10:25 -31.27145 149.83106 18309 ft 278 kts 229°
2026-05-09 10:25 -31.28428 149.81410 18313 ft 278 kts 229°
2026-05-09 10:25 -31.29708 149.79716 18311 ft 278 kts 229°
2026-05-09 10:25 -31.30989 149.78020 18307 ft 278 kts 229°
2026-05-09 10:26 -31.32268 149.76327 18311 ft 278 kts 229°
2026-05-09 10:26 -31.33547 149.74631 18313 ft 278 kts 229°
2026-05-09 10:26 -31.34826 149.72938 18316 ft 278 kts 229°
2026-05-09 10:26 -31.36108 149.71238 18315 ft 278 kts 229°
2026-05-09 10:27 -31.37388 149.69539 18314 ft 278 kts 229°
2026-05-09 10:27 -31.38648 149.67867 18320 ft 278 kts 229°
2026-05-09 10:27 -31.39927 149.66170 18317 ft 278 kts 229°
2026-05-09 10:27 -31.41208 149.64468 18317 ft 278 kts 229°
2026-05-09 10:28 -31.42487 149.62769 18321 ft 278 kts 229°
2026-05-09 10:28 -31.43763 149.61072 18320 ft 278 kts 229°
2026-05-09 10:28 -31.45040 149.59374 18327 ft 278 kts 229°
2026-05-09 10:28 -31.46315 149.57677 18320 ft 278 kts 229°
2026-05-09 10:29 -31.47591 149.55980 18317 ft 278 kts 229°
2026-05-09 10:29 -31.48866 149.54283 18316 ft 278 kts 229°
2026-05-09 10:29 -31.50125 149.52603 18316 ft 278 kts 229°
2026-05-09 10:29 -31.51400 149.50904 18315 ft 278 kts 229°
2026-05-09 10:30 -31.52676 149.49201 18320 ft 277 kts 229°
2026-05-09 10:30 -31.53949 149.47504 18323 ft 277 kts 229°
2026-05-09 10:30 -31.55222 149.45804 18322 ft 278 kts 229°
2026-05-09 10:30 -31.56496 149.44103 18321 ft 277 kts 229°
2026-05-09 10:31 -31.57769 149.42401 18318 ft 277 kts 229°
2026-05-09 10:31 -31.59043 149.40701 18320 ft 277 kts 229°
2026-05-09 10:31 -31.60313 149.39000 18322 ft 277 kts 229°
2026-05-09 10:31 -31.61585 149.37300 18319 ft 277 kts 229°
2026-05-09 10:32 -31.62858 149.35595 18317 ft 277 kts 229°
2026-05-09 10:32 -31.64131 149.33892 18318 ft 277 kts 229°
2026-05-09 10:32 -31.65404 149.32185 18320 ft 277 kts 229°
2026-05-09 10:32 -31.66677 149.30481 18321 ft 277 kts 230°
2026-05-09 10:33 -31.67946 149.28777 18318 ft 277 kts 229°
2026-05-09 10:33 -31.69219 149.27070 18319 ft 277 kts 230°
2026-05-09 10:33 -31.70488 149.25366 18326 ft 277 kts 229°
2026-05-09 10:33 -31.71745 149.23680 18322 ft 277 kts 230°
2026-05-09 10:34 -31.73015 149.21972 18319 ft 277 kts 229°
2026-05-09 10:34 -31.75604 149.18493 17809 ft 288 kts 229°
2026-05-09 10:34 -31.76917 149.16726 17429 ft 287 kts 229°
2026-05-09 10:35 -31.78229 149.14963 17050 ft 286 kts 229°
2026-05-09 10:35 -31.79538 149.13199 16672 ft 286 kts 229°
2026-05-09 10:35 -31.80846 149.11438 16297 ft 286 kts 229°
2026-05-09 10:35 -31.82155 149.09672 15915 ft 286 kts 229°
2026-05-09 10:36 -31.83461 149.07914 15542 ft 285 kts 229°
2026-05-09 10:36 -31.84765 149.06153 15165 ft 285 kts 229°
2026-05-09 10:36 -31.86067 149.04396 14791 ft 285 kts 229°
2026-05-09 10:36 -31.87370 149.02638 14412 ft 285 kts 229°
2026-05-09 10:37 -31.88672 149.00877 14025 ft 285 kts 229°
2026-05-09 10:37 -31.89970 148.99125 13631 ft 284 kts 229°
2026-05-09 10:37 -31.91243 148.97402 13266 ft 281 kts 229°
2026-05-09 10:37 -31.92520 148.95674 12893 ft 278 kts 228°
2026-05-09 10:38 -31.93788 148.93960 12526 ft 277 kts 228°
2026-05-09 10:38 -31.95049 148.92250 12164 ft 275 kts 228°
2026-05-09 10:38 -31.96309 148.90546 11802 ft 275 kts 228°
2026-05-09 10:38 -31.97560 148.88848 11440 ft 274 kts 227°
2026-05-09 10:39 -31.98809 148.87159 11080 ft 273 kts 227°
2026-05-09 10:39 -32.00065 148.85451 10524 ft 279 kts 227°
2026-05-09 10:39 -32.01345 148.83719 10041 ft 280 kts 227°
2026-05-09 10:39 -32.02614 148.81994 9651 ft 276 kts 227°
2026-05-09 10:40 -32.03864 148.80292 9284 ft 273 kts 227°
2026-05-09 10:40 -32.05088 148.78634 8930 ft 270 kts 227°
2026-05-09 10:40 -32.06315 148.76961 8572 ft 268 kts 227°
2026-05-09 10:40 -32.07531 148.75310 8225 ft 265 kts 227°
2026-05-09 10:41 -32.08732 148.73676 7879 ft 262 kts 227°
2026-05-09 10:41 -32.09917 148.72059 7554 ft 258 kts 227°
2026-05-09 10:41 -32.11081 148.70477 7301 ft 253 kts 227°
2026-05-09 10:41 -32.12223 148.68920 7059 ft 249 kts 227°
2026-05-09 10:42 -32.13350 148.67384 6821 ft 246 kts 227°
2026-05-09 10:42 -32.14448 148.65886 6563 ft 244 kts 227°
2026-05-09 10:42 -32.15556 148.64376 6312 ft 241 kts 227°
2026-05-09 10:42 -32.16627 148.62910 6054 ft 231 kts 226°
2026-05-09 10:43 -32.17476 148.61330 5798 ft 228 kts 246°
2026-05-09 10:43 -32.17916 148.59544 5548 ft 225 kts 251°
2026-05-09 10:43 -32.18342 148.57787 5295 ft 220 kts 248°
2026-05-09 10:43 -32.18837 148.56116 5044 ft 217 kts 246°
2026-05-09 10:44 -32.19344 148.54446 4780 ft 215 kts 246°
2026-05-09 10:44 -32.19838 148.52783 4523 ft 214 kts 247°
2026-05-09 10:44 -32.20325 148.51133 4266 ft 212 kts 247°
2026-05-09 10:44 -32.20810 148.49491 4011 ft 211 kts 247°
2026-05-09 10:45 -32.21279 148.47894 3758 ft 200 kts 247°
2026-05-09 10:46 -32.22974 148.42154 2721 ft 176 kts 247°
2026-05-09 10:46 -32.23373 148.40803 2456 ft 173 kts 247°
2026-05-09 10:46 -32.23763 148.39471 2205 ft 169 kts 247°
2026-05-09 10:46 -32.24142 148.38187 2015 ft 160 kts 247°
2026-05-09 10:47 -32.24501 148.36970 2016 ft 155 kts 247°
2026-05-09 10:47 -32.24832 148.35836 2008 ft 138 kts 246°
2026-05-09 10:47 -32.25138 148.34803 2002 ft 129 kts 246°
2026-05-09 10:47 -32.25425 148.33822 2005 ft 123 kts 246°
2026-05-09 10:48 -32.25702 148.32877 2005 ft 120 kts 246°
2026-05-09 10:48 -32.25975 148.31951 1998 ft 119 kts 246°
2026-05-09 10:48 -32.25977 148.30976 2009 ft 130 kts 285°
2026-05-09 10:48 -32.25502 148.30027 2005 ft 136 kts 295°
2026-05-09 10:49 -32.25011 148.29065 1993 ft 139 kts 295°
2026-05-09 10:49 -32.24508 148.28096 1847 ft 133 kts 296°
2026-05-09 10:49 -32.24053 148.27224 1666 ft 118 kts 296°
2026-05-09 10:49 -32.23643 148.26419 1479 ft 113 kts 294°
2026-05-09 10:50 -32.23258 148.25604 1300 ft 112 kts 296°
2026-05-09 10:50 -32.22833 148.24814 1153 ft 116 kts 301°
2026-05-09 10:50 -32.22413 148.24004 1038 ft 114 kts 301°
2026-05-09 10:50 -32.21998 148.23223 855 ft 112 kts 299°
2026-05-09 10:51 -32.21592 148.22463 783 ft 102 kts 302°
2026-05-09 10:51 -32.21441 148.22158 779 ft 21 kts 258°
2026-05-09 10:51 -32.21437 148.22170 779 ft 12 kts 128°
2026-05-09 10:51 -32.21450 148.22191 780 ft 0 kts 123°
2026-05-09 10:52 -32.21486 148.22257 781 ft 14 kts 121°
2026-05-09 10:52 -32.21539 148.22361 781 ft 15 kts 121°
2026-05-09 10:52 -32.21592 148.22462 783 ft 13 kts 123°
2026-05-09 10:52 -32.21640 148.22554 783 ft 13 kts 120°
2026-05-09 10:53 -32.21687 148.22647 782 ft 13 kts 122°
2026-05-09 10:53 -32.21736 148.22740 782 ft 13 kts 122°
2026-05-09 10:53 -32.21784 148.22826 782 ft 12 kts 120°
2026-05-09 10:53 -32.21826 148.22912 782 ft 12 kts 120°
2026-05-09 10:54 -32.21890 148.22933 781 ft 10 kts 186°
2026-05-09 10:54 -32.21952 148.22922 782 ft 9 kts 189°
2026-05-09 10:54 -32.22012 148.22911 782 ft 10 kts 188°
2026-05-09 10:54 -32.22088 148.22898 782 ft 11 kts 188°
2026-05-09 10:55 -32.22124 148.22877 782 ft 3 kts 221°
2026-05-09 10:55 -32.22134 148.22874 782 ft 0 kts 189°
2026-05-09 10:55 -32.22150 148.22871 782 ft 0 kts 189°